Regional Weather Roundup
Issued by NWS Wakefield, VA

Home | Current Version | Previous Version | Graphics & Text | Print | Product List | Glossary On
Versions: 1 2 3 4 5 6 7 8 9 10 11 12 13 14 15 16 17 18 19 20 21 22 23 24 25 26 27 28 29 30 31 32 33 34 35 36 37 38 39 40 41 42 43 44 45 46 47 48 49 50
000
ASUS41 KAKQ 122110
RWRAKQ

REGIONAL WEATHER ROUNDUP
NATIONAL WEATHER SERVICE WAKEFIELD VA
500 PM EDT SAT JUL 12 2014

Note: "fair" indicates few or no clouds below 12,000 feet with no
significant weather and/or obstructions to visibility. * = Denotes
station may not report precipitation (e.g., rain,snow,etc.),
thunder or fog.

VAZ042-051-052>054-056-122200-
NORTHERN VIRGINIA

CITY           SKY/WX    TMP DP  RH WIND       PRES   REMARKS
WASH NATIONAL  MOSUNNY   88  67  49 S14       30.14F
DULLES         PTSUNNY   85  70  60 S10       30.13F
FORT BELVOIR   NOT AVBL
QUANTICO       SUNNY     87  71  58 S12       30.14F
FREDERICKSBRG* MOSUNNY   91  67  45 S9        30.13F
STAFFORD*      PTSUNNY   87  70  56 S6        30.17F
WARRENTON      MOSUNNY   88  75  65 S9        30.13F HX  97
CULPEPER*      SUNNY    N/A N/A N/A S7        30.14S
MANASSAS*      NOT AVBL
LEESBURG*      CLOUDY    88  72  58 SW9       30.14F
WINCHESTER     CLOUDY    82  66  57 E10       30.14S
$$

VAZ048-049-060>072-079>083-122200-
CENTRAL AND SOUTH CENTRAL VIRGINIA...AND NORTH CENTRAL NORTH CAROLINA

CITY           SKY/WX    TMP DP  RH WIND       PRES   REMARKS
RICHMOND       PTSUNNY   91  64  40 SE13      30.16F
CHESTERFIELD*  CLEAR     88  63  42 S8        30.17F
HANOVER        MOSUNNY   87  63  44 VRB5      30.16F
TAPPAHANNOCK*  MOSUNNY   91  54  28 SE8       30.17F
CHARLOTTSVILLE PTSUNNY   88  67  49 S8        30.14F
ORANGE*        MOSUNNY   88  66  48 SE9       30.15F
LOUISA*        MOSUNNY   88  68  51 S5        30.14F
FARMVILLE*     MOSUNNY   90  63  40 S9        30.13F
SOUTH HILL*    SUNNY     90  66  45 CALM      30.23F
ROANOKE RAPIDS MOCLDY    90  68  48 S5        30.18F
RALEIGH        MOSUNNY   88  66  48 S7        30.18F
$$

VAZ088>098-122200-
SOUTHEAST VIRGINIA

CITY           SKY/WX    TMP DP  RH WIND       PRES   REMARKS
NORFOLK        SUNNY     82  70  66 NE10      30.19S
VIRGINIA BEACH MOSUNNY   80  69  69 E6        30.19S
NORFOLK NAVAL  MOSUNNY   82  70  66 NE13      30.20F
WEST POINT*    SUNNY     88  64  45 SE10      30.19F
NEWPORT NEWS   SUNNY     86  70  58 NE8       30.19F
LANGLEY AFB    NOT AVBL
FORT EUSTIS    NOT AVBL
WILLIAMSBURG*  SUNNY     90  72  55 SE7       30.19F HX  96
FRANKLIN*      SUNNY     88  66  48 SE5       30.17F
WAKEFIELD      MOSUNNY   87  67  51 CALM      30.18F
$$

VAZ020-022-025-037-045-122200-
WESTERN AND SOUTHWEST VIRGINIA

CITY           SKY/WX    TMP DP  RH WIND       PRES   REMARKS
STAUNTON*      SUNNY     85  64  49 S12G17    30.18F
HOT SPRINGS VA PTSUNNY   73  62  67 S8        30.32F
LYNCHBURG      MOSUNNY   86  66  51 S12       30.18F
DANVILLE       SUNNY     90  65  43 S6        30.16F
MARTINSVILLE   SUNNY     91  64  40 S3        30.19F
ROANOKE        MOSUNNY   87  64  46 S15       30.18F
BLACKSBURG     MOSUNNY   84  68  58 S9        30.24F
DUBLIN*        LGT RAIN  82  66  59 S8        30.23F
MARION*        PTSUNNY   82  67  61 CALM      30.26F
HILLSVILLE*    MOSUNNY   78  64  62 S9G17     30.27F
RICHLANDS*     CLEAR     85  61  44 NW7       30.25F
WISE*          MOSUNNY   84  54  34 N10       30.27F
ABINGDON*      MOSUNNY   87  61  41 NW3       30.22F
$$

MDZ021>025-VAZ099-100-122200-
SOUTHERN MARYLAND AND THE DELMARVA PENINSULA

CITY           SKY/WX    TMP DP  RH WIND       PRES   REMARKS
PATUXENT RIVER MOSUNNY   81  70  69 SE14G21   30.16F
BAY BRIDGE APT   N/A     86  59  39 S9        30.15F
LEONARDTOWN    SUNNY     82  63  51 SE7       30.18F
DOVER          NOT AVBL
GEORGETOWN     SUNNY     83  67  58 S18       30.20S
EASTON         SUNNY     88  66  48 SW10      30.20F
CAMBRIDGE      SUNNY     86  66  51 S8        30.17F
SALISBURY      CLOUDY    86  68  54 SE13      30.19F
OCEAN CITY     SUNNY     77  70  79 VRB6      30.21F
WALLOPS ISLAND SUNNY     80  69  69 S10       30.21F
ACCOMACK*        N/A     81  68  65 E3        30.20F
$$

NCZ012>017-030>032-122200-
EASTERN NORTH CAROLINA

CITY           SKY/WX    TMP DP  RH WIND       PRES   REMARKS
ELIZABETH CITY MOSUNNY   82  69  64 E5        30.19F
AHOSKIE*       SUNNY     85  68  56 SE5       30.18F
EDENTON*       SUNNY     82  71  69 E6        30.19S
CURRITUCK*     SUNNY     84  67  56 E8        30.21S
KILL DEVIL HLS SUNNY     78  69  72 NE3       30.19S
MANTEO         NOT AVBL
CAPE HATTERAS  SUNNY     83  69  62 VRB7      30.19S
GOLDSBORO      NOT AVBL
WASHINGTON     SUNNY     85  66  53 CALM      30.18F
GREENVILLE     MOSUNNY   88  66  48 NE5       30.18F
NEW BERN       SUNNY     88  71  57 E9        30.17F
WILMINGTON     MOSUNNY   86  73  65 SE10      30.16F
$$

VAZ048-122200-
ELSEWHERE

CITY           SKY/WX    TMP DP  RH WIND       PRES   REMARKS
HARRISBURG PA  PTSUNNY   83  70  64 E13       30.12F
BALTIMORE      MOSUNNY   86  67  52 SE12      30.13F
ANNAPOLIS      SUNNY     85  62  46 S12       30.15F
ANDREWS AFB    NOT AVBL
WILMINGTON DE  MOSUNNY   82  66  58 S16       30.17S
PHILADELPHIA   MOSUNNY   88  57  34 S14       30.16S
WILDWOOD NJ*   SUNNY     77  66  69 SE15      30.22S
ATLANTIC CITY  MOSUNNY   79  68  69 S9        30.20S
HENDERSON NC   MOSUNNY   88  59  37 S6        30.18F
GREENSBORO     MOSUNNY   90  60  36 VRB6      30.17F
ROCKY MOUNT    SUNNY     88  67  49 CALM      30.18F
FAYETTEVILLE   SUNNY     91  66  43 E6        30.15F
CHARLOTTE      MOSUNNY   91  55  29 SE8       30.17F
$$

VAZ100-122200-
MARINE

STATION/POSITION TIME  TEMP    WIND        PRES    WAVE   SWELL
                       AIR SEA DIR/SP/G            HT/PER HT/PER
                 (UTC) (F)     (DEG/KT/KT) (MB)    (FT/S) (FT/S)
44066 TX TWR #4  2100   73 73  160/  4/  4 1023.1F   2/ 6   2/ 6
CAPE MAY NJ      2100   74 74  150/ 12/ 16 1022.4S
LEWES DE         2100   75 71  160/ 13/ 17 1021.7F
15NM E FENWICK I 2100   74 76              1023.2F   1/ 6
OCEAN-CITY-INLET 2100   75 76  160/  8/  9 1022.9F
WACHAPREAGUE VA  2100   78 84  110/  5/  9 1022.9F
THOMAS POINT MD  2100   81 80  160/ 17/ 18 1021.2F
GOOSES REEF MD   2100   80     180/ 16/ 19 1021.7F
COVE POINT MD    2100   78     180/ 17/ 18 1021.6F
SOLOMONS ISLAND  2100      82                N/A
BISHOPS HEAD MD  2100   80 84  150/ 13/ 14 1022.0F
PINEY POINT MD   2100          150/ 18/ 19   N/A
POTOMAC MD       2100   79     160/ 14/ 16 1021.4S
CAMBRIDGE MD     2100   85 81  180/  4/ 11 1021.2F
LEWISETTA VA     2100   82 83  140/ 11/ 14 1021.2F
RAPPAHANNOCK LGT 2100          200/  3/  5 1023.3R
STINGRAY PT      2100   78     150/  8/ 12 1022.0S
YORK RVR RNG VA  2100   77     140/  9/ 10 1022.1F
YORKTOWN VA      2100   79 81   90/ 11/ 12 1022.3F
JAMESTOWN VA     2100   81     130/  6/ 10   N/A
DOMINION TERM VA 2100   78      70/ 12/ 14 1022.7S
KIPTOPEKE VA     2100      80  120/  5/  8   N/A
CHES BAY BRIDGE  2100   76 80   60/ 10/ 11 1022.2S
CAPE HENRY VA    2100   77     110/  6/  7 1021.7S
WILLOUBY STN VA  2100   82      80/ 11/ 12 1021.9F
S CRANEY ISL VA  2100           10/ 10/ 12 1022.2F
CAPE HENRY BUOY  2100      78                N/A     1/ 8
1ST LANDING BUOY 2100   77      90/  6/  8 1022.6S
CAPE CHARLES BUO 2100      78                N/A     1/ 8
OFFSHORE WE BUOY 2000      78                N/A     2/ 7
64NM E OF VA BCH 2100   75 78   90/  6/  8 1022.5R   2/ 8   2/ 8
DUCK PIER NC     2100   79 75   90/  5/  6 1021.9F
44056 DUCK FRF   2100                        N/A     2/ 6
OREGON INLET NC  2100   77 77   60/  5/  7 1022.5S
HATTERAS NC      2100   79 82   20/  7/ 10 1022.5R
DIAMOND SHLS NC  2100          VRB  2/  6  1021.9F   2/ 7   2/ 7
CAPE LOOKOUT NC  2000   79      80/  8/ 10 1021.9F
$$


USA.gov is the U.S. government's official web portal to all federal, state and local government web resources and services.